Tampa International Airport

Airport
ICAO code: 
KTPA
Summary
ICAO Region: 
NAM
Territory: 
Location: 
Tampa, Florida,
Coordinates: 
Aerial View: 
27° 58' 36.808" N, 82° 32' 0.157" W
Metar
Observation
KTPA 240653Z 00000KT 10SM CLR 06/03 A3004 RMK AO2 SLP173 T00610033
Station
Tampa, Tampa International Airport
Date/Time
2022-01-24 06:53:00
Wind direction
Wind speed
00 kts
Lowest cloud amount
n/a
Temperature
6.1°C
Dew point
3.3°C
Humidity
82%
Weather condition
n/a

Description

International airport 6 nm west of Tampa, Florida, USA.

Climatology

Humid “subtropical” climate (Köppen climate classification Cfa) - characterized by hot, humid summers and cool winters. Significant amounts of precipitation occur in all seasons in most areas.

Runways

Designator Length Width Surface Rops
9/27 2133 46 PEM Yes/Yes
18L/36R 2530 46 PEM Yes/Yes
18R/36L 3353 46 CON Yes/Yes
Airport map: 
Aerial View: 

SKYbrary Partners:

Safety knowledge contributed by: